Year,Month,Day,Hour,Minute,Value (Times are PST for temperature in C)
2017,12,19,00,00,4.70
2017,12,19,00,01,4.70
2017,12,19,00,02,4.70
2017,12,19,00,03,4.70
2017,12,19,00,04,4.70
2017,12,19,00,05,4.70
2017,12,19,00,06,4.70
2017,12,19,00,07,4.70
2017,12,19,00,08,4.70
2017,12,19,00,09,4.70
2017,12,19,00,10,4.70
2017,12,19,00,11,4.70
2017,12,19,00,12,4.70
2017,12,19,00,13,4.60
2017,12,19,00,14,4.60
2017,12,19,00,15,4.60
2017,12,19,00,16,4.60
2017,12,19,00,17,4.60
2017,12,19,00,18,4.60
2017,12,19,00,19,4.60
2017,12,19,00,20,4.60
2017,12,19,00,21,4.60
2017,12,19,00,22,4.60
2017,12,19,00,23,4.60
2017,12,19,00,24,4.60
2017,12,19,00,25,4.60
2017,12,19,00,26,4.60
2017,12,19,00,27,4.60
2017,12,19,00,28,4.60
2017,12,19,00,29,4.50
2017,12,19,00,30,4.50
2017,12,19,00,31,4.50
2017,12,19,00,32,4.40
2017,12,19,00,33,4.40
2017,12,19,00,34,4.40
2017,12,19,00,35,4.40
2017,12,19,00,36,4.40
2017,12,19,00,37,4.30
2017,12,19,00,38,4.30
2017,12,19,00,39,4.30
2017,12,19,00,40,4.30
2017,12,19,00,41,4.30
2017,12,19,00,42,4.30
2017,12,19,00,43,4.30
2017,12,19,00,44,4.30
2017,12,19,00,45,4.30
2017,12,19,00,46,4.30
2017,12,19,00,47,4.20
2017,12,19,00,48,4.20
2017,12,19,00,49,4.20
2017,12,19,00,50,4.20
2017,12,19,00,51,4.20
2017,12,19,00,52,4.20
2017,12,19,00,53,4.20
2017,12,19,00,54,4.20
2017,12,19,00,55,4.20
2017,12,19,00,56,4.10
2017,12,19,00,57,4.10
2017,12,19,00,58,4.10
2017,12,19,00,59,4.10
2017,12,19,01,00,4.10
2017,12,19,01,01,4.10
2017,12,19,01,02,4.10
2017,12,19,01,03,4.10
2017,12,19,01,04,4.10
2017,12,19,01,05,4.00
2017,12,19,01,06,4.00
2017,12,19,01,07,4.00
2017,12,19,01,08,3.90
2017,12,19,01,09,3.90
2017,12,19,01,10,3.90
2017,12,19,01,11,3.90
2017,12,19,01,12,3.90
2017,12,19,01,13,3.90
2017,12,19,01,14,3.90
2017,12,19,01,15,3.80
2017,12,19,01,16,3.80
2017,12,19,01,17,3.80
2017,12,19,01,18,3.80
2017,12,19,01,19,3.80
2017,12,19,01,20,3.80
2017,12,19,01,21,3.80
2017,12,19,01,22,3.70
2017,12,19,01,23,3.70
2017,12,19,01,24,3.70
2017,12,19,01,25,3.70
2017,12,19,01,26,3.70
2017,12,19,01,27,3.60
2017,12,19,01,28,3.60
2017,12,19,01,29,3.60
2017,12,19,01,30,3.60
2017,12,19,01,31,3.60
2017,12,19,01,32,3.60
2017,12,19,01,33,3.60
2017,12,19,01,34,3.60
2017,12,19,01,35,3.60
2017,12,19,01,36,3.60
2017,12,19,01,37,3.60
2017,12,19,01,38,3.60
2017,12,19,01,39,3.50
2017,12,19,01,40,3.50
2017,12,19,01,41,3.50
2017,12,19,01,42,3.50
2017,12,19,01,43,3.50
2017,12,19,01,44,3.50
2017,12,19,01,45,3.50
2017,12,19,01,46,3.50
2017,12,19,01,47,3.40
2017,12,19,01,48,3.40
2017,12,19,01,49,3.40
2017,12,19,01,50,3.40
2017,12,19,01,51,3.40
2017,12,19,01,52,3.40
2017,12,19,01,53,3.40
2017,12,19,01,54,3.30
2017,12,19,01,55,3.30
2017,12,19,01,56,3.30
2017,12,19,01,57,3.30
2017,12,19,01,58,3.30
2017,12,19,01,59,3.30
2017,12,19,02,00,3.30
2017,12,19,02,01,3.30
2017,12,19,02,02,3.30
2017,12,19,02,03,3.30
2017,12,19,02,04,3.30
2017,12,19,02,05,3.30
2017,12,19,02,06,3.30
2017,12,19,02,07,3.30
2017,12,19,02,08,3.30
2017,12,19,02,09,3.30
2017,12,19,02,10,3.30
2017,12,19,02,11,3.20
2017,12,19,02,12,3.20
2017,12,19,02,13,3.20
2017,12,19,02,14,3.20
2017,12,19,02,15,3.20
2017,12,19,02,16,3.20
2017,12,19,02,17,3.20
2017,12,19,02,18,3.10
2017,12,19,02,19,3.10
2017,12,19,02,20,3.10
2017,12,19,02,21,3.10
2017,12,19,02,22,3.10
2017,12,19,02,23,3.10
2017,12,19,02,24,3.00
2017,12,19,02,25,3.00
2017,12,19,02,26,3.00
2017,12,19,02,27,3.00
2017,12,19,02,28,3.00
2017,12,19,02,29,3.00
2017,12,19,02,30,3.00
2017,12,19,02,31,3.00
2017,12,19,02,32,3.00
2017,12,19,02,33,3.00
2017,12,19,02,34,3.10
2017,12,19,02,35,3.10
2017,12,19,02,36,3.10
2017,12,19,02,37,3.10
2017,12,19,02,38,3.10
2017,12,19,02,39,3.10
2017,12,19,02,40,3.00
2017,12,19,02,41,3.00
2017,12,19,02,42,3.00
2017,12,19,02,43,3.00
2017,12,19,02,44,3.00
2017,12,19,02,45,2.90
2017,12,19,02,46,2.90
2017,12,19,02,47,2.90
2017,12,19,02,48,2.90
2017,12,19,02,49,2.90
2017,12,19,02,50,2.90
2017,12,19,02,51,2.90
2017,12,19,02,52,2.80
2017,12,19,02,53,2.80
2017,12,19,02,54,2.80
2017,12,19,02,55,2.80
2017,12,19,02,56,2.80
2017,12,19,02,57,2.70
2017,12,19,02,58,2.70
2017,12,19,02,59,2.70
2017,12,19,03,00,2.70
2017,12,19,03,01,2.70
2017,12,19,03,02,2.70
2017,12,19,03,03,2.70
2017,12,19,03,04,2.70
2017,12,19,03,05,2.70
2017,12,19,03,06,2.70
2017,12,19,03,07,2.70
2017,12,19,03,08,2.60
2017,12,19,03,09,2.60
2017,12,19,03,10,2.60
2017,12,19,03,11,2.60
2017,12,19,03,12,2.60
2017,12,19,03,13,2.60
2017,12,19,03,14,2.50
2017,12,19,03,15,2.50
2017,12,19,03,16,2.50
2017,12,19,03,17,2.50
2017,12,19,03,18,2.50
2017,12,19,03,19,2.50
2017,12,19,03,20,2.50
2017,12,19,03,21,2.50
2017,12,19,03,22,2.50
2017,12,19,03,23,2.50
2017,12,19,03,24,2.60
2017,12,19,03,25,2.60
2017,12,19,03,26,2.60
2017,12,19,03,27,2.60
2017,12,19,03,28,2.60
2017,12,19,03,29,2.60
2017,12,19,03,30,2.60
2017,12,19,03,31,2.70
2017,12,19,03,32,2.70
2017,12,19,03,33,2.70
2017,12,19,03,34,2.70
2017,12,19,03,35,2.70
2017,12,19,03,36,2.70
2017,12,19,03,37,2.80
2017,12,19,03,38,2.80
2017,12,19,03,39,2.80
2017,12,19,03,40,2.80
2017,12,19,03,41,2.80
2017,12,19,03,42,2.80
2017,12,19,03,43,2.80
2017,12,19,03,44,2.80
2017,12,19,03,45,2.80
2017,12,19,03,46,2.80
2017,12,19,03,47,2.80
2017,12,19,03,48,2.80
2017,12,19,03,49,2.80
2017,12,19,03,50,2.80
2017,12,19,03,51,2.80
2017,12,19,03,52,2.80
2017,12,19,03,53,2.80
2017,12,19,03,54,2.80
2017,12,19,03,55,2.80
2017,12,19,03,56,2.80
2017,12,19,03,57,2.80
2017,12,19,03,58,2.80
2017,12,19,03,59,2.80
2017,12,19,04,00,2.80
2017,12,19,04,01,2.80
2017,12,19,04,02,2.80
2017,12,19,04,03,2.80
2017,12,19,10,39,1.30
2017,12,19,10,40,1.30
2017,12,19,10,41,1.30
2017,12,19,10,42,1.40
2017,12,19,10,43,1.40
2017,12,19,10,44,1.40
2017,12,19,10,45,1.40
2017,12,19,10,46,1.40
2017,12,19,10,47,1.40
2017,12,19,10,48,1.40
2017,12,19,10,49,1.40
2017,12,19,10,50,1.40
2017,12,19,10,51,1.40
2017,12,19,10,52,1.40
2017,12,19,10,53,1.40
2017,12,19,10,54,1.40
2017,12,19,10,55,1.40
2017,12,19,10,56,1.40
2017,12,19,10,57,1.40
2017,12,19,10,58,1.50
2017,12,19,10,59,1.50
2017,12,19,11,00,1.50
2017,12,19,11,01,1.50
2017,12,19,11,02,1.50
2017,12,19,11,03,1.50
2017,12,19,11,04,1.50
2017,12,19,11,05,1.50
2017,12,19,11,06,1.50
2017,12,19,11,07,1.50
2017,12,19,11,08,1.50
2017,12,19,11,09,1.50
2017,12,19,11,10,1.50
2017,12,19,11,11,1.50
2017,12,19,11,12,1.50
2017,12,19,11,13,1.50
2017,12,19,11,14,1.50
2017,12,19,11,15,1.50
2017,12,19,11,16,1.60
2017,12,19,11,17,1.50
2017,12,19,11,18,1.50
2017,12,19,11,19,1.50
2017,12,19,11,20,1.50
2017,12,19,11,21,1.60
2017,12,19,11,22,1.60
2017,12,19,11,23,1.60
2017,12,19,11,24,1.60
2017,12,19,11,25,1.60
2017,12,19,11,26,1.60
2017,12,19,11,27,1.60
2017,12,19,11,28,1.60
2017,12,19,11,29,1.60
2017,12,19,11,30,1.70
2017,12,19,11,31,1.70
2017,12,19,11,32,1.70
2017,12,19,11,33,1.70
2017,12,19,11,34,1.70
2017,12,19,11,35,1.70
2017,12,19,11,36,1.70
2017,12,19,11,37,1.70
2017,12,19,11,38,1.80
2017,12,19,11,39,1.80
2017,12,19,11,40,1.80
2017,12,19,11,41,1.80
2017,12,19,11,42,1.90
2017,12,19,11,43,1.90
2017,12,19,11,44,1.90
2017,12,19,11,45,1.90
2017,12,19,11,46,1.90
2017,12,19,11,47,2.00
2017,12,19,11,48,2.00
2017,12,19,11,49,2.00
2017,12,19,11,50,2.00
2017,12,19,11,51,2.10
2017,12,19,11,52,2.10
2017,12,19,11,53,2.10
2017,12,19,11,54,2.20
2017,12,19,11,55,2.20
2017,12,19,11,56,2.20
2017,12,19,11,57,2.30
2017,12,19,11,58,2.30
2017,12,19,11,59,2.30
2017,12,19,12,00,2.30
2017,12,19,12,01,2.30
2017,12,19,12,02,2.30
2017,12,19,12,03,2.40
2017,12,19,12,04,2.40
2017,12,19,12,05,2.40
2017,12,19,12,06,2.40
2017,12,19,12,07,2.40
2017,12,19,12,08,2.40
2017,12,19,12,09,2.40
2017,12,19,12,10,2.40
2017,12,19,12,11,2.40
2017,12,19,12,12,2.30
2017,12,19,12,13,2.30
2017,12,19,12,14,2.40
2017,12,19,12,15,2.40
2017,12,19,12,16,2.40
2017,12,19,12,17,2.40
2017,12,19,12,18,2.40
2017,12,19,12,19,2.40
2017,12,19,12,20,2.40
2017,12,19,12,21,2.40
2017,12,19,12,22,2.40
2017,12,19,12,23,2.40
2017,12,19,12,24,2.40
2017,12,19,12,25,2.40
2017,12,19,12,26,2.40
2017,12,19,12,27,2.40
2017,12,19,12,28,2.40
2017,12,19,12,29,2.40
2017,12,19,12,30,2.40
2017,12,19,12,31,2.40
2017,12,19,12,32,2.40
2017,12,19,12,33,2.40
2017,12,19,12,34,2.40
2017,12,19,12,35,2.40
2017,12,19,12,36,2.40
2017,12,19,12,37,2.40
2017,12,19,12,38,2.40
2017,12,19,12,39,2.40
2017,12,19,12,40,2.40
2017,12,19,12,41,2.40
2017,12,19,12,42,2.40
2017,12,19,12,43,2.40
2017,12,19,12,44,2.40
2017,12,19,12,45,2.40
2017,12,19,12,46,2.40
2017,12,19,12,47,2.40
2017,12,19,12,48,2.40
2017,12,19,12,49,2.40
2017,12,19,12,50,2.40
2017,12,19,12,51,2.50
2017,12,19,12,52,2.50
2017,12,19,12,53,2.50
2017,12,19,12,54,2.50
2017,12,19,12,55,2.50
2017,12,19,12,56,2.50
2017,12,19,12,57,2.50
2017,12,19,12,58,2.60
2017,12,19,12,59,2.60
2017,12,19,13,00,2.60
2017,12,19,13,01,2.60
2017,12,19,13,02,2.50
2017,12,19,13,03,2.50
2017,12,19,13,04,2.50
2017,12,19,13,05,2.50
2017,12,19,13,06,2.50
2017,12,19,13,07,2.50
2017,12,19,13,08,2.50
2017,12,19,13,09,2.60
2017,12,19,13,10,2.60
2017,12,19,13,11,2.60
2017,12,19,13,12,2.60
2017,12,19,13,13,2.60
2017,12,19,13,14,2.60
2017,12,19,13,15,2.60
2017,12,19,13,16,2.60
2017,12,19,13,17,2.60
2017,12,19,13,18,2.60
2017,12,19,13,19,2.60
2017,12,19,13,20,2.60
2017,12,19,13,21,2.70
2017,12,19,13,22,2.70
2017,12,19,13,23,2.70
2017,12,19,13,24,2.70
2017,12,19,13,25,2.70
2017,12,19,13,26,2.70
2017,12,19,13,27,2.70
2017,12,19,13,28,2.70
2017,12,19,13,29,2.70
2017,12,19,13,30,2.70
2017,12,19,13,31,2.70
2017,12,19,13,32,2.70
2017,12,19,13,33,2.70
2017,12,19,13,34,2.70
2017,12,19,13,35,2.70
2017,12,19,13,36,2.70
2017,12,19,13,37,2.70
2017,12,19,13,38,2.70
2017,12,19,13,39,2.70
2017,12,19,13,40,2.70
2017,12,19,13,41,2.80
2017,12,19,13,42,2.80
2017,12,19,13,43,2.80
2017,12,19,13,44,2.80
2017,12,19,13,45,2.80
2017,12,19,13,46,2.80
2017,12,19,13,47,2.90
2017,12,19,13,48,2.90
2017,12,19,13,49,2.90
2017,12,19,13,50,2.90
2017,12,19,13,51,2.90
2017,12,19,13,52,2.90
2017,12,19,13,53,2.90
2017,12,19,13,54,2.90
2017,12,19,13,55,2.90
2017,12,19,13,56,2.90
2017,12,19,13,57,3.00
2017,12,19,13,58,3.00
2017,12,19,13,59,3.00
2017,12,19,14,00,3.00
2017,12,19,14,01,3.00
2017,12,19,14,02,3.00
2017,12,19,14,03,3.00
2017,12,19,14,04,3.00
2017,12,19,14,05,3.00
2017,12,19,14,06,3.00
2017,12,19,14,07,3.00
2017,12,19,14,08,3.00
2017,12,19,14,09,3.00
2017,12,19,14,10,3.10
2017,12,19,14,11,3.10
2017,12,19,14,12,3.10
2017,12,19,14,13,3.10
2017,12,19,14,14,3.10
2017,12,19,14,15,3.10
2017,12,19,14,16,3.10
2017,12,19,14,17,3.10
2017,12,19,14,18,3.10
2017,12,19,14,19,3.10
2017,12,19,14,20,3.10
2017,12,19,14,21,3.10
2017,12,19,14,22,3.10
2017,12,19,14,23,3.20
2017,12,19,14,24,3.20
2017,12,19,14,25,3.20
2017,12,19,14,26,3.20
2017,12,19,14,27,3.20
2017,12,19,14,28,3.20
2017,12,19,14,29,3.20
2017,12,19,14,30,3.20
2017,12,19,14,31,3.20
2017,12,19,14,32,3.20
2017,12,19,14,33,3.20
2017,12,19,14,34,3.20
2017,12,19,14,35,3.20
2017,12,19,14,36,3.20
2017,12,19,14,37,3.20
2017,12,19,14,38,3.20
2017,12,19,14,39,3.20
2017,12,19,14,40,3.30
2017,12,19,14,41,3.30
2017,12,19,14,42,3.30
2017,12,19,14,43,3.30
2017,12,19,14,44,3.30
2017,12,19,14,45,3.20
2017,12,19,14,46,3.20
2017,12,19,14,47,3.20
2017,12,19,14,48,3.20
2017,12,19,14,49,3.30
2017,12,19,14,50,3.20
2017,12,19,14,51,3.20
2017,12,19,14,52,3.30
2017,12,19,14,53,3.30
2017,12,19,14,54,3.30
2017,12,19,14,55,3.30
2017,12,19,14,56,3.30
2017,12,19,14,57,3.30
2017,12,19,14,58,3.30
2017,12,19,14,59,3.30
2017,12,19,15,00,3.30
2017,12,19,15,01,3.30
2017,12,19,15,02,3.30
2017,12,19,15,03,3.30
2017,12,19,15,04,3.30
2017,12,19,15,05,3.30
2017,12,19,15,06,3.40
2017,12,19,15,07,3.40
2017,12,19,15,08,3.40
2017,12,19,15,09,3.40
2017,12,19,15,10,3.40
2017,12,19,15,11,3.40
2017,12,19,15,12,3.40
2017,12,19,15,13,3.40
2017,12,19,15,14,3.40
2017,12,19,15,15,3.40
2017,12,19,15,16,3.40
2017,12,19,15,17,3.40
2017,12,19,15,18,3.40
2017,12,19,15,19,3.40
2017,12,19,15,20,3.40
2017,12,19,15,21,3.40
2017,12,19,15,22,3.40
2017,12,19,15,23,3.40
2017,12,19,15,24,3.40
2017,12,19,15,25,3.40
2017,12,19,15,26,3.40
2017,12,19,15,27,3.40
2017,12,19,15,28,3.40
2017,12,19,15,29,3.40
2017,12,19,15,30,3.40
2017,12,19,15,31,3.40
2017,12,19,15,32,3.40
2017,12,19,15,33,3.40
2017,12,19,15,34,3.40
2017,12,19,15,35,3.40
2017,12,19,15,36,3.40
2017,12,19,15,37,3.50
2017,12,19,15,38,3.40
2017,12,19,15,39,3.40
2017,12,19,15,40,3.40
2017,12,19,15,41,3.40
2017,12,19,15,42,3.40
2017,12,19,15,43,3.40
2017,12,19,15,44,3.40
2017,12,19,15,45,3.40
2017,12,19,15,46,3.40
2017,12,19,15,47,3.40
2017,12,19,15,48,3.40
2017,12,19,15,49,3.50
2017,12,19,15,50,3.40
2017,12,19,15,51,3.50
2017,12,19,15,52,3.50
2017,12,19,15,53,3.50
2017,12,19,15,54,3.50
2017,12,19,15,55,3.50
2017,12,19,15,56,3.50
2017,12,19,15,57,3.50
2017,12,19,15,58,3.40
2017,12,19,15,59,3.40
2017,12,19,16,00,3.40
2017,12,19,16,01,3.40
2017,12,19,16,02,3.40
2017,12,19,16,03,3.40
2017,12,19,16,04,3.40
2017,12,19,16,05,3.40
2017,12,19,16,06,3.40
2017,12,19,16,07,3.40
2017,12,19,16,08,3.40
2017,12,19,16,09,3.40
2017,12,19,17,04,3.40
2017,12,19,17,05,3.40
2017,12,19,17,06,3.40
2017,12,19,17,07,3.40
2017,12,19,17,08,3.40
2017,12,19,17,09,3.40
2017,12,19,17,10,3.40
2017,12,19,17,11,3.40
2017,12,19,17,12,3.40
2017,12,19,17,13,3.30
2017,12,19,17,14,3.30
2017,12,19,17,15,3.30
2017,12,19,17,16,3.30
2017,12,19,17,17,3.30
2017,12,19,17,18,3.30
2017,12,19,17,19,3.30
2017,12,19,17,20,3.30
2017,12,19,17,21,3.30
2017,12,19,17,22,3.30
2017,12,19,17,23,3.30
2017,12,19,17,24,3.30
2017,12,19,17,25,3.30
2017,12,19,17,26,3.30
2017,12,19,17,27,3.30
2017,12,19,17,28,3.30
2017,12,19,17,29,3.30
2017,12,19,17,30,3.30
2017,12,19,17,31,3.30
2017,12,19,17,32,3.20
2017,12,19,17,33,3.20
2017,12,19,17,34,3.20
2017,12,19,17,35,3.20
2017,12,19,17,36,3.20
2017,12,19,17,37,3.20
2017,12,19,17,38,3.20
2017,12,19,17,39,3.20
2017,12,19,17,40,3.20
2017,12,19,17,41,3.20
2017,12,19,17,42,3.20
2017,12,19,17,43,3.20
2017,12,19,17,44,3.20
2017,12,19,17,45,3.20
2017,12,19,17,46,3.20
2017,12,19,17,47,3.20
2017,12,19,17,48,3.20
2017,12,19,17,49,3.20
2017,12,19,17,50,3.20
2017,12,19,17,51,3.20
2017,12,19,17,52,3.20
2017,12,19,17,53,3.20
2017,12,19,17,54,3.20
2017,12,19,17,55,3.20
2017,12,19,17,56,3.20
2017,12,19,17,57,3.20
2017,12,19,17,58,3.20
2017,12,19,17,59,3.20
2017,12,19,18,00,3.20
2017,12,19,18,01,3.30
2017,12,19,18,02,3.30
2017,12,19,18,03,3.30
2017,12,19,18,04,3.30
2017,12,19,18,05,3.30
2017,12,19,18,06,3.30
2017,12,19,18,07,3.40
2017,12,19,18,08,3.40
2017,12,19,18,09,3.40
2017,12,19,18,10,3.40
2017,12,19,18,11,3.40
2017,12,19,18,12,3.40
2017,12,19,18,13,3.40
2017,12,19,18,14,3.40
2017,12,19,18,15,3.40
2017,12,19,18,16,3.40
2017,12,19,18,17,3.40
2017,12,19,18,18,3.40
2017,12,19,18,19,3.40
2017,12,19,18,20,3.40
2017,12,19,18,21,3.40
2017,12,19,18,22,3.50
2017,12,19,18,23,3.50
2017,12,19,18,24,3.50
2017,12,19,18,25,3.50
2017,12,19,18,26,3.50
2017,12,19,18,27,3.50
2017,12,19,18,28,3.50
2017,12,19,18,29,3.50
2017,12,19,18,30,3.50
2017,12,19,18,31,3.50
2017,12,19,18,32,3.50
2017,12,19,18,33,3.50
2017,12,19,18,34,3.50
2017,12,19,18,35,3.50
2017,12,19,18,36,3.60
2017,12,19,18,37,3.60
2017,12,19,18,38,3.60
2017,12,19,18,39,3.60
2017,12,19,18,40,3.60
2017,12,19,18,41,3.60
2017,12,19,18,42,3.60
2017,12,19,18,43,3.60
2017,12,19,18,44,3.60
2017,12,19,18,45,3.60
2017,12,19,18,46,3.60
2017,12,19,18,47,3.60
2017,12,19,18,48,3.60
2017,12,19,18,49,3.60
2017,12,19,18,50,3.60
2017,12,19,18,51,3.60
2017,12,19,18,52,3.60
2017,12,19,18,53,3.60
2017,12,19,18,54,3.60
2017,12,19,18,55,3.60
2017,12,19,18,56,3.60
2017,12,19,18,57,3.60
2017,12,19,18,58,3.60
2017,12,19,18,59,3.60
2017,12,19,19,00,3.60
2017,12,19,19,01,3.60
2017,12,19,19,02,3.60
2017,12,19,19,03,3.60
2017,12,19,19,04,3.60
2017,12,19,19,05,3.60
2017,12,19,19,06,3.60
2017,12,19,19,07,3.60
2017,12,19,19,08,3.60
2017,12,19,19,09,3.50
2017,12,19,19,10,3.50
2017,12,19,19,11,3.50
2017,12,19,19,12,3.50
2017,12,19,19,13,3.50
2017,12,19,19,14,3.50
2017,12,19,19,15,3.50
2017,12,19,19,16,3.50
2017,12,19,19,17,3.50
2017,12,19,19,18,3.50
2017,12,19,19,19,3.50
2017,12,19,19,20,3.50
2017,12,19,19,21,3.50
2017,12,19,19,22,3.50
2017,12,19,19,23,3.50
2017,12,19,19,24,3.50
2017,12,19,19,25,3.50
2017,12,19,19,26,3.60
2017,12,19,19,27,3.60
2017,12,19,19,28,3.60
2017,12,19,19,29,3.60
2017,12,19,19,30,3.60
2017,12,19,19,31,3.60
2017,12,19,19,32,3.50
2017,12,19,19,33,3.50
2017,12,19,19,34,3.50
2017,12,19,19,35,3.50
2017,12,19,19,36,3.50
2017,12,19,19,37,3.50
2017,12,19,19,38,3.50
2017,12,19,19,39,3.40
2017,12,19,19,40,3.40
2017,12,19,19,41,3.40
2017,12,19,19,42,3.40
2017,12,19,19,43,3.30
2017,12,19,19,44,3.30
2017,12,19,19,45,3.30
2017,12,19,19,46,3.30
2017,12,19,19,47,3.30
2017,12,19,19,48,3.20
2017,12,19,19,49,3.20
2017,12,19,19,50,3.20
2017,12,19,19,51,3.20
2017,12,19,19,52,3.10
2017,12,19,19,53,3.10
2017,12,19,19,54,3.10
2017,12,19,19,55,3.10
2017,12,19,19,56,3.10
2017,12,19,19,57,3.00
2017,12,19,19,58,3.00
2017,12,19,19,59,3.00
2017,12,19,20,00,3.00
2017,12,19,20,01,3.00
2017,12,19,20,02,2.90
2017,12,19,20,03,2.90
2017,12,19,20,04,2.90
2017,12,19,20,05,2.90
2017,12,19,20,06,2.90
2017,12,19,20,07,2.90
2017,12,19,20,08,2.90
2017,12,19,20,09,2.90
2017,12,19,20,10,2.90
2017,12,19,20,11,2.90
2017,12,19,20,12,2.80
2017,12,19,20,13,2.80
2017,12,19,20,14,2.80
2017,12,19,20,15,2.80
2017,12,19,20,16,2.80
2017,12,19,20,17,2.80
2017,12,19,20,18,2.80
2017,12,19,20,19,2.80
2017,12,19,20,20,2.80
2017,12,19,20,21,2.80
2017,12,19,20,22,2.80
2017,12,19,20,23,2.80
2017,12,19,20,24,2.80
2017,12,19,20,25,2.80
2017,12,19,20,26,2.80
2017,12,19,20,27,2.70
2017,12,19,20,28,2.70
2017,12,19,20,29,2.80
2017,12,19,20,30,2.80
2017,12,19,20,31,2.80
2017,12,19,20,32,2.70
2017,12,19,20,33,2.70
2017,12,19,20,34,2.80
2017,12,19,20,35,2.70
2017,12,19,20,36,2.80
2017,12,19,20,37,2.80
2017,12,19,20,38,2.70
2017,12,19,20,39,2.70
2017,12,19,20,40,2.70
2017,12,19,20,41,2.70
2017,12,19,20,42,2.70
2017,12,19,20,43,2.70
2017,12,19,20,44,2.70
2017,12,19,20,45,2.70
2017,12,19,20,46,2.70
2017,12,19,20,47,2.70
2017,12,19,20,48,2.70
2017,12,19,20,49,2.70
2017,12,19,20,50,2.70
2017,12,19,20,51,2.70
2017,12,19,20,52,2.70
2017,12,19,20,53,2.70
2017,12,19,20,54,2.70
2017,12,19,20,55,2.70
2017,12,19,20,56,2.70
2017,12,19,20,57,2.70
2017,12,19,20,58,2.70
2017,12,19,20,59,2.70
2017,12,19,21,00,2.70
2017,12,19,21,01,2.70
2017,12,19,21,02,2.70
2017,12,19,21,03,2.70
2017,12,19,21,04,2.70
2017,12,19,21,05,2.70
2017,12,19,21,06,2.70
2017,12,19,21,07,2.70
2017,12,19,21,08,2.70
2017,12,19,21,09,2.70
2017,12,19,21,10,2.70
2017,12,19,21,11,2.70
2017,12,19,21,12,2.70
2017,12,19,21,13,2.70
2017,12,19,21,14,2.70
2017,12,19,21,15,2.70
2017,12,19,21,16,2.70
2017,12,19,21,17,2.70
2017,12,19,21,18,2.60
2017,12,19,21,19,2.60
2017,12,19,21,20,2.60
2017,12,19,21,21,2.60
2017,12,19,21,22,2.60
2017,12,19,21,23,2.60
2017,12,19,21,24,2.60
2017,12,19,21,25,2.60
2017,12,19,21,26,2.70
2017,12,19,21,27,2.60
2017,12,19,21,28,2.70
2017,12,19,21,29,2.60
2017,12,19,21,30,2.70
2017,12,19,21,31,2.60
2017,12,19,21,32,2.70
2017,12,19,21,33,2.70
2017,12,19,21,34,2.70
2017,12,19,21,35,2.70
2017,12,19,21,36,2.70
2017,12,19,21,37,2.70
2017,12,19,21,38,2.70
2017,12,19,21,39,2.70
2017,12,19,21,40,2.70
2017,12,19,21,41,2.70
2017,12,19,21,42,2.70
2017,12,19,21,43,2.70
2017,12,19,21,44,2.70
2017,12,19,21,45,2.70
2017,12,19,21,46,2.70
2017,12,19,21,47,2.70
2017,12,19,21,48,2.70
2017,12,19,21,49,2.60
2017,12,19,21,50,2.60
2017,12,19,21,51,2.60
2017,12,19,21,52,2.60
2017,12,19,21,53,2.50
2017,12,19,21,54,2.50
2017,12,19,21,55,2.40
2017,12,19,21,56,2.40
2017,12,19,21,57,2.40
2017,12,19,21,58,2.40
2017,12,19,21,59,2.40
2017,12,19,22,00,2.40
2017,12,19,22,01,2.40
2017,12,19,22,02,2.40
2017,12,19,22,03,2.40
2017,12,19,22,04,2.40
2017,12,19,22,05,2.40
2017,12,19,22,06,2.30
2017,12,19,22,07,2.30
2017,12,19,22,08,2.30
2017,12,19,22,09,2.30
2017,12,19,22,10,2.30
2017,12,19,22,11,2.30
2017,12,19,22,12,2.30
2017,12,19,22,13,2.30
2017,12,19,22,14,2.30
2017,12,19,22,15,2.30
2017,12,19,22,16,2.30
2017,12,19,22,17,2.30
2017,12,19,22,18,2.30
2017,12,19,22,19,2.30
2017,12,19,22,20,2.30
2017,12,19,22,21,2.30
2017,12,19,22,22,2.30
2017,12,19,22,23,2.30
2017,12,19,22,24,2.30
2017,12,19,22,25,2.30
2017,12,19,22,26,2.30
2017,12,19,22,27,2.30
2017,12,19,22,28,2.30
2017,12,19,22,29,2.30
2017,12,19,22,30,2.30
2017,12,19,22,31,2.30
2017,12,19,22,32,2.30
2017,12,19,22,33,2.30
2017,12,19,22,34,2.30
2017,12,19,22,35,2.30
2017,12,19,22,36,2.40
2017,12,19,22,37,2.40
2017,12,19,22,38,2.40
2017,12,19,22,39,2.40
2017,12,19,22,40,2.40
2017,12,19,22,41,2.40
2017,12,19,22,42,2.40
2017,12,19,22,43,2.40
2017,12,19,22,44,2.40
2017,12,19,22,45,2.40
2017,12,19,22,46,2.40
2017,12,19,22,47,2.40
2017,12,19,22,48,2.40
2017,12,19,22,49,2.40
2017,12,19,22,50,2.40
2017,12,19,22,51,2.40
2017,12,19,22,52,2.40
2017,12,19,22,53,2.40
2017,12,19,22,54,2.40
2017,12,19,22,55,2.40
2017,12,19,22,56,2.40
2017,12,19,22,57,2.40
2017,12,19,22,58,2.40
2017,12,19,22,59,2.40
2017,12,19,23,00,2.50
2017,12,19,23,01,2.50
2017,12,19,23,02,2.50
2017,12,19,23,03,2.50
2017,12,19,23,04,2.50
2017,12,19,23,05,2.60
2017,12,19,23,06,2.60
2017,12,19,23,07,2.60
2017,12,19,23,08,2.60
2017,12,19,23,09,2.60
2017,12,19,23,10,2.60
2017,12,19,23,11,2.60
2017,12,19,23,12,2.60
2017,12,19,23,13,2.60
2017,12,19,23,14,2.60
2017,12,19,23,15,2.70
2017,12,19,23,16,2.70
2017,12,19,23,17,2.70
2017,12,19,23,18,2.70
2017,12,19,23,19,2.70
2017,12,19,23,20,2.70
2017,12,19,23,21,2.70
2017,12,19,23,22,2.70
2017,12,19,23,23,2.70
2017,12,19,23,24,2.70
2017,12,19,23,25,2.70
2017,12,19,23,26,2.70
2017,12,19,23,27,2.70
2017,12,19,23,28,2.70
2017,12,19,23,29,2.70
2017,12,19,23,30,2.70
2017,12,19,23,31,2.70
2017,12,19,23,32,2.70
2017,12,19,23,33,2.70
2017,12,19,23,34,2.70
2017,12,19,23,35,2.70
2017,12,19,23,36,2.70
2017,12,19,23,37,2.70
2017,12,19,23,38,2.70
2017,12,19,23,39,2.70
2017,12,19,23,40,2.70
2017,12,19,23,41,2.70
2017,12,19,23,42,2.80
2017,12,19,23,43,2.80
2017,12,19,23,44,2.80
2017,12,19,23,45,2.80
2017,12,19,23,46,2.80
2017,12,19,23,47,2.80
2017,12,19,23,48,2.80
2017,12,19,23,49,2.80
2017,12,19,23,50,2.80
2017,12,19,23,51,2.80
2017,12,19,23,52,2.80
2017,12,19,23,53,2.80
2017,12,19,23,54,2.80
2017,12,19,23,55,2.70
2017,12,19,23,56,2.70
2017,12,19,23,57,2.80
2017,12,19,23,58,2.80
2017,12,19,23,59,2.70
